Roatan, Honduras

1:15 PM CST on August 18, 2017 (GMT -0600)
Roatan International

Weather History for MHRO - March, 2013

Change the Weather History Date:

Sunday, March 24, 2013

  Actual Average Record
Temperature  
Mean Temperature 82 °F -  
Max Temperature 89 °F 85 °F 89 °F (2013)
Min Temperature 76 °F 76 °F 63 °F (2017)
Cooling Degree Days 18    
Growing Degree Days 32 (Base 50)    
Moisture  
Dew Point 76 °F    
Average Humidity 75    
Maximum Humidity 89    
Minimum Humidity 48    
Precipitation  
Precipitation 0.00 in - - ()
Sea Level Pressure  
Sea Level Pressure 29.71 in    
Wind  
Wind Speed 5 mph ()    
Max Wind Speed 22 mph    
Max Gust Speed -    
Visibility 5.5 miles    
Events      
Averages and records for this station are not official NWS values.
T = Trace of Precipitation, MM = Missing Value Source: Averaged Metar Reports

Daily Weather History Graph

Daily Weather History Graph

Search for Another Location

Airport or City:

Trip Planner

Search our weather history database for the weather conditions in past years. The results will help you decide how hot, cold, wet, or windy it might be!

Date:

Astronomy

Mar. 24, 2013 Rise Set
Actual Time 5:46 AM CST 5:57 PM CST
Civil Twilight 5:25 AM CST 6:19 PM CST
Nautical Twilight 5:00 AM CST 6:44 PM CST
Astronomical Twilight 4:35 AM CST 7:09 PM CST
Moon 3:43 PM CST (3/24) 3:35 AM CST (3/24)
Length of Visible Light 12h 53m
Length of Day
12h 10m
Waxing Gibbous, 92% of the Moon is Illuminated
Mar 24
Waxing Gibbous
Mar 27
Full
Apr 2
Last Quarter
Apr 10
New
Apr 18
First Quarter

Hourly Weather History & Observations

Time (CST) Temp. Heat Index Dew Point Humidity Pressure Visibility Wind Dir Wind Speed Gust Speed Precip Events Conditions
6:00 AM 77 °F - 73 °F 83% 29.73 in 6 mi Calm Calm - -   Smoke
6:00 AM 77.0 °F - 73.4 °F 89% 29.71 in - Calm Calm - N/A   Clear
7:00 AM 80.6 °F 87.1 °F 77.0 °F 89% 29.74 in - Calm Calm - N/A   Clear
8:00 AM 82.4 °F 92.4 °F 78.8 °F 89% 29.74 in 5.0 mi SSW 5.8 mph - N/A   Scattered Clouds
9:00 AM 84 °F - 78 °F 77% 29.78 in 5 mi South 6.9 mph - -   Smoke
9:00 AM 84.2 °F 96.1 °F 78.8 °F 84% 29.77 in 5.0 mi South 6.9 mph - N/A   Scattered Clouds
10:00 AM 86.0 °F 99.3 °F 78.8 °F 79% 29.77 in 5.0 mi South 5.8 mph - N/A   Scattered Clouds
11:00 AM 86.0 °F 96.9 °F 77.0 °F 74% 29.74 in 5.0 mi South 5.8 mph - N/A   Scattered Clouds
12:00 PM 88 °F - 78 °F 64% 29.73 in 5 mi SSE 4.6 mph - -   Smoke
12:00 PM 87.8 °F 99.7 °F 77.0 °F 70% 29.71 in 5.0 mi SSE 4.6 mph - N/A   Scattered Clouds
1:00 PM 89.6 °F 99.8 °F 75.2 °F 62% 29.68 in 5.0 mi ESE 8.1 mph - N/A   Scattered Clouds
2:00 PM 87.8 °F 102.5 °F 78.8 °F 75% 29.65 in - East 11.5 mph - N/A   Scattered Clouds
3:00 PM 89 °F - 72 °F 48% 29.80 in 7 mi ENE 21.9 mph - -   Smoke
3:00 PM 87.8 °F 102.5 °F 78.8 °F 75% 29.65 in - East 11.5 mph - N/A   Clear
4:00 PM 87.8 °F 99.7 °F 77.0 °F 70% 29.62 in - East 11.5 mph - N/A   Clear
5:00 PM 86.0 °F 93.4 °F 73.4 °F 66% 29.65 in - NE 8.1 mph - N/A   Clear
6:00 PM 84.2 °F 90.9 °F 73.4 °F 70% 29.65 in 6.2 mi ENE 5.8 mph - N/A   Partly Cloudy
7:00 PM 80.6 °F 85.4 °F 73.4 °F 79% 29.65 in 6.2 mi NNE 4.6 mph - N/A   Partly Cloudy
8:00 PM 82.4 °F 88.2 °F 73.4 °F 74% 29.68 in 6.2 mi North 6.9 mph - N/A   Scattered Clouds